This is the latest recevied weather packets stored in our database for station/object KD9WYV. If no packets are shown the sender has not sent any weather packets the latest 10 day(s).
| Time | Temp. | Humidity | Pressure | Rain* | Wind** | Luminosity | Snow |
|---|---|---|---|---|---|---|---|
| 1777386038 | 13.89° C | 79% | 1014.7 hPa | 0 mm | - | 270 W/m² | - |
| 1777385733 | 13.89° C | 80% | 1014.5 hPa | 0 mm | - | 206 W/m² | - |
| 1777385431 | 13.89° C | 81% | 1014.7 hPa | 0 mm | - | 216 W/m² | - |
| 1777385127 | 13.89° C | 81% | 1014.4 hPa | 0 mm | - | 149 W/m² | - |
| 1777384823 | 13.89° C | 81% | 1014.4 hPa | 0 mm | - | 183 W/m² | - |
| 1777384520 | 13.33° C | 82% | 1014.4 hPa | 0 mm | - | 106 W/m² | - |
| 1777384215 | 13.33° C | 81% | 1014.5 hPa | 0 mm | - | 93 W/m² | - |
| 1777383911 | 13.89° C | 80% | 1014.4 hPa | 0 mm | - | 114 W/m² | - |
| 1777383607 | 13.89° C | 80% | 1014.2 hPa | 0 mm | - | 102 W/m² | - |
| 1777383304 | 13.89° C | 80% | 1014 hPa | 0 mm | - | 139 W/m² | - |
| 1777383000 | 13.89° C | 80% | 1014.2 hPa | 0 mm | - | 127 W/m² | - |
| 1777382697 | 13.89° C | 81% | 1014 hPa | 0 mm | - | 117 W/m² | - |
| 1777382392 | 14.44° C | 81% | 1013.9 hPa | 0 mm | - | 160 W/m² | - |
| 1777382088 | 14.44° C | 82% | 1014 hPa | 0 mm | - | 132 W/m² | - |
| 1777381785 | 14.44° C | 84% | 1013.9 hPa | 0 mm | - | 90 W/m² | - |
| 1777381484 | 14.44° C | 85% | 1013.7 hPa | 0 mm | - | 131 W/m² | - |
| 1777381181 | 14.44° C | 85% | 1013.5 hPa | 0 mm | - | 163 W/m² | - |
| 1777380878 | 14.44° C | 85% | 1013.6 hPa | 0 mm | - | 128 W/m² | - |
| 1777380575 | 14.44° C | 85% | 1013.3 hPa | 0 mm | - | 135 W/m² | - |
| 1777380271 | 14.44° C | 85% | 1013.4 hPa | 0 mm | - | 134 W/m² | - |
| 1777379967 | 14.44° C | 85% | 1013.5 hPa | 0 mm | - | 128 W/m² | - |
| 1777379664 | 14.44° C | 86% | 1013.2 hPa | 0 mm | - | 108 W/m² | - |
| 1777379359 | 14.44° C | 85% | 1013.1 hPa | 0 mm | - | 94 W/m² | - |
| 1777379055 | 14.44° C | 86% | 1013 hPa | 0 mm | - | 73 W/m² | - |
| 1777378749 | 14.44° C | 87% | 1013 hPa | 0 mm | - | 75 W/m² | - |
* Rain latest hour (hover to see other rain measurements)
** Current wind speed in m/s (hover to see current wind gust speed)